| time (UTC) | temp F | wind direction | speed MPH | gust MPH | rain 1hr in | rain 24hr in | rain mn in | humidity % | barometer mb |
| 20260504220029 | 79 | 143 | 5.0 | 18.0 | 0.00 | 0.00 | 0.00 | 40 | 1010.9 |
| 20260504214552 | 80 | 124 | 3.0 | 8.0 | 0.00 | 0.00 | 0.00 | 41 | 1011.0 |
| 20260504213041 | 79 | 142 | 5.0 | 10.0 | 0.00 | 0.00 | 0.00 | 40 | 1011.0 |
| 20260504211518 | 80 | 142 | 4.0 | 13.0 | 0.00 | 0.00 | 0.00 | 40 | 1011.2 |
| 20260504210043 | 79 | 139 | 5.0 | 10.0 | 0.00 | 0.00 | 0.00 | 41 | 1011.4 |
| 20260504204530 | 79 | 134 | 4.0 | 13.0 | 0.00 | 0.00 | 0.00 | 41 | 1011.6 |
| 20260504203025 | 79 | 128 | 7.0 | 13.0 | 0.00 | 0.00 | 0.00 | 40 | 1012.0 |
| 20260504201523 | 80 | 124 | 3.0 | 10.0 | 0.00 | 0.00 | 0.00 | 41 | 1012.1 |
| 20260504200037 | 79 | 68 | 4.0 | 13.0 | 0.00 | 0.00 | 0.00 | 42 | 1012.4 |
| 20260504194559 | 79 | 134 | 5.0 | 16.0 | 0.00 | 0.00 | 0.00 | 42 | 1012.6 |
| 20260504193049 | 78 | 97 | 4.0 | 10.0 | 0.00 | 0.00 | 0.00 | 43 | 1012.7 |
| 20260504191532 | 78 | 139 | 4.0 | 12.0 | 0.00 | 0.00 | 0.00 | 41 | 1012.8 |
| 20260504190018 | 78 | 110 | 4.0 | 15.0 | 0.00 | 0.00 | 0.00 | 43 | 1013.0 |
| 20260504184513 | 78 | 99 | 5.0 | 10.0 | 0.00 | 0.00 | 0.00 | 42 | 1013.2 |
| 20260504183059 | 77 | 128 | 5.0 | 14.0 | 0.00 | 0.00 | 0.00 | 44 | 1013.3 |
| 20260504181513 | 77 | 137 | 5.0 | 14.0 | 0.00 | 0.00 | 0.00 | 44 | 1013.4 |
| 20260504180021 | 78 | 134 | 3.0 | 9.0 | 0.00 | 0.00 | 0.00 | 42 | 1013.6 |
| 20260504174525 | 77 | 134 | 3.0 | 12.0 | 0.00 | 0.00 | 0.00 | 43 | 1013.6 |
| 20260504173031 | 77 | 138 | 4.0 | 13.0 | 0.00 | 0.00 | 0.00 | 44 | 1013.9 |
| 20260504171519 | 76 | 152 | 4.0 | 9.0 | 0.00 | 0.00 | 0.00 | 44 | 1014.1 |
| 20260504140111 | 65 | 133 | 1.0 | 5.0 | 0.00 | 0.00 | 0.00 | 8 | 1015.7 |
| 20260504081537 | 51 | 155 | 0.0 | 0.0 | 0.00 | 0.00 | 0.00 | 100 | 1015.2 |
| 20260504044600 | 53 | 155 | 0.0 | 0.0 | 0.00 | 0.00 | 0.00 | 100 | 1016.6 |
| 20260504043046 | 53 | 155 | 0.0 | 0.0 | 0.00 | 0.00 | 0.00 | 100 | 1016.8 |
| 20260504041520 | 54 | 154 | 0.0 | 0.0 | 0.00 | 0.00 | 0.00 | 100 | 1016.8 |
| 20260504040012 | 54 | 154 | 0.0 | 0.0 | 0.00 | 0.00 | 0.00 | 7 | 1016.8 |
| 20260504034605 | 55 | 154 | 0.0 | 0.0 | 0.00 | 0.00 | 0.00 | 6 | 1016.9 |
| 20260504033048 | 55 | 154 | 0.0 | 0.0 | 0.00 | 0.00 | 0.00 | 4 | 1016.9 |
| 20260504031506 | 56 | 154 | 0.0 | 0.0 | 0.00 | 0.00 | 0.00 | 11 | 1017.0 |
| 20260504030034 | 56 | 154 | 0.0 | 0.0 | 0.00 | 0.00 | 0.00 | 6 | 1017.0 |
| 20260504024550 | 56 | 154 | 0.0 | 0.0 | 0.00 | 0.00 | 0.00 | 7 | 1017.0 |
| 20260504023055 | 57 | 153 | 0.0 | 0.0 | 0.00 | 0.00 | 0.00 | 18 | 1016.8 |
| 20260504021548 | 58 | 153 | 0.0 | 0.0 | 0.00 | 0.00 | 0.00 | 27 | 1016.7 |
| 20260504020023 | 59 | 153 | 0.0 | 0.0 | 0.00 | 0.00 | 0.00 | 34 | 1016.7 |
| 20260504014523 | 59 | 153 | 0.0 | 0.0 | 0.00 | 0.00 | 0.00 | 39 | 1016.6 |
| 20260504013035 | 60 | 153 | 0.0 | 2.0 | 0.00 | 0.00 | 0.00 | 41 | 1016.5 |
| 20260504011538 | 61 | 153 | 0.0 | 1.0 | 0.00 | 0.00 | 0.00 | 47 | 1016.5 |
| 20260504010059 | 63 | 152 | 0.0 | 0.0 | 0.00 | 0.00 | 0.00 | 49 | 1016.3 |
| 20260504004516 | 65 | 151 | 0.0 | 1.0 | 0.00 | 0.00 | 0.00 | 49 | 1016.1 |
| 20260504003005 | 68 | 128 | 0.0 | 1.0 | 0.00 | 0.00 | 0.00 | 50 | 1016.1 |
| 20260504001606 | 71 | 130 | 0.0 | 0.0 | 0.00 | 0.00 | 0.00 | 47 | 1016.0 |
| 20260504000014 | 73 | 127 | 0.0 | 2.0 | 0.00 | 0.00 | 0.00 | 40 | 1016.2 |
| 20260503234509 | 73 | 137 | 0.0 | 2.0 | 0.00 | 0.00 | 0.00 | 39 | 1016.3 |
| 20260503233006 | 73 | 121 | 1.0 | 3.0 | 0.00 | 0.00 | 0.00 | 38 | 1016.4 |
| 20260503231600 | 74 | 121 | 0.0 | 4.0 | 0.00 | 0.00 | 0.00 | 40 | 1016.5 |
| 20260503230100 | 74 | 125 | 1.0 | 5.0 | 0.00 | 0.00 | 0.00 | 37 | 1016.6 |
| 20260503224510 | 73 | 114 | 0.0 | 5.0 | 0.00 | 0.00 | 0.00 | 39 | 1016.6 |
| 20260503223032 | 73 | 132 | 1.0 | 5.0 | 0.00 | 0.00 | 0.00 | 40 | 1016.6 |
| 20260503221543 | 73 | 107 | 1.0 | 4.0 | 0.00 | 0.00 | 0.00 | 37 | 1016.8 |